Location: Hermaringen
(48.5952°N, 10.2585°E)
Time: 15:55:43
(UTC+00:00)

Explorer 7 - Pass Details

Date: 18 February 2026
Orbit: 430 x 541 km, 50.2° (Epoch: 9 March)

Event Time Altitude Azimuth Distance (km) Brightness Sun altitude
Rises 18:07:38 0° 284° (WNW) 2,507 11.8 -14.3°
Reaches altitude 10° 18:09:45 10° 285° (WNW) 1,649 10.5 -14.6°
Maximum altitude 18:13:29 84° 14° (NNE) 499 6.5 -15.2°
Enters shadow 18:15:13 31° 101° (E) 890 7.3 -15.5°
